Location: Arcadia
(34.1397°N, 118.0353°W)
Time: 22:57:52
(UTC+00:00)

Cosmos 1867 - Pass Details

Date: 08 September 2024
Orbit: 772 x 802 km, 65.0° (Epoch: 13 October)

Event Time Altitude Azimuth Distance (km) Brightness Sun altitude
Exits shadow 13:04:08 - 230° (SW) 2,939 6.0 -6.3°
Reaches altitude 10° 13:05:47 10° 236° (SW) 2,349 5.5 -6.0°
Maximum altitude 13:10:49 39° 304° (NW) 1,180 4.2 -5.0°
Drops below altitude 10° 13:15:55 10° 13° (NNE) 2,375 6.4 -3.9°
Sets 13:18:31 0° 21° (NNE) 3,311 7.2 -3.4°
